Погода в Сосновце

Польша     50°17′06″N   19°08′08″E
темп.,
°C
ветер,
м/с
пор.,
м/с
влажн.,
%
обл.,
%
осадки,
мм/ч
давл.,
гПа
погр.,
м
25 февраля, чт
чт2501:00+6юз238630 0.0 103328
04:00+5юз12857 0.0 103222
07:00+5ююз12818 0.0 103222
10:00+9ююз12580 0.0 1031128
13:00+13юз24480 0.0 1030309
16:00+13зюз28560 0.0 1028399
19:00+10зюз311700 0.0 1029302
22:00+8зюз312760 0.0 1029361
26 февраля, пт
пт2601:00+7зюз310840 0.0 1030253
04:00+6зюз24900 0.0 1028105
07:00+5зюз22910 0.0 102934
10:00+9з24734 0.0 1028254
13:00+11зсз247035 0.0 1027356
16:00+11зсз247379 0.0 1026249
19:00+8ссз489082 0.6 1027518
22:00+6ссз4881100 0.6 1027640
27 февраля, сб
сб2701:00+5зсз388298 0.6 1028594
04:00+3зсз388977 0.1 1028512
07:00+3зсз497988 0.2 1029676
10:00+3зсз478264 0.0 1029752
13:00+2сз488482 0.1 1031707
16:00+3сз4781100 0.1 1031691
19:00+3сз3777100 0.2 1032753
22:00+3сз3675100 0.1 1033618
28 февраля, вс
вс2801:00+3зсз2675100 0.1 1034399
04:00+1зсз269161 0.0 1034261
07:00+1сз249364 0.0 1034294
10:00+2зсз237999 0.0 1034472
13:00+5сз235395 0.0 10331017
16:00+5ссз235296 0.0 10331074
19:00+3ссв246393 0.0 1034453
22:00+2св127177 0.0 1035131
1 марта, пн
пн101:00+1всв138185 0.0 1036175
04:000св129135 0.0 103661
07:000всв129220 0.0 103769
10:00+3вюв137648 0.0 1038555
13:00+4всв236674 0.0 1038854
16:00+4всв246351 0.0 1038829
19:00+2в257342 0.0 1039447
22:00+2в258248 0.0 1040222